Lamoni, IA

8:28 PM CST on February 25, 2017 (GMT -0600)
Lamoni Municipal

Weather History for KLWD - July, 2013

Change the Weather History Date:

Wednesday, July 17, 2013

  Actual Average Record
Temperature  
Mean Temperature 83 °F 75 °F  
Max Temperature 93 °F 85 °F 101 °F (1980)
Min Temperature 72 °F 65 °F 56 °F (2014)
Degree Days  
Heating Degree Days 0 0  
Month to date heating degree days 0 0  
Since 1 June heating degree days 32 19  
Since 1 July heating degree days 0 0  
Cooling Degree Days 18 10  
Month to date cooling degree days 182 168  
Year to date cooling degree days 439 415  
Since 1 June cooling degree days 363 361  
Growing Degree Days 32 (Base 50)    
Moisture  
Dew Point 68 °F    
Average Humidity 63    
Maximum Humidity 84    
Minimum Humidity 41    
Precipitation  
Precipitation 0.00 in 0.19 in 2.81 in (1972)
Month to date precipitation 0.16 2.75  
Sea Level Pressure  
Sea Level Pressure 30.25 in    
Wind  
Wind Speed 6 mph (South)    
Max Wind Speed 14 mph    
Max Gust Speed 20 mph    
Visibility 10 miles    
Events Thunderstorm    
T = Trace of Precipitation, MM = Missing Value Source: NWS Daily Summary

Daily Weather History Graph

Daily Weather History Graph

Search for Another Location

Airport or City:

Trip Planner

Search our weather history database for the weather conditions in past years. The results will help you decide how hot, cold, wet, or windy it might be!

Date:

Astronomy

Jul. 17, 2013 Rise Set
Actual Time 5:59 AM CDT 8:43 PM CDT
Civil Twilight 5:27 AM CDT 9:15 PM CDT
Nautical Twilight 4:46 AM CDT 9:55 PM CDT
Astronomical Twilight 4:00 AM CDT 10:41 PM CDT
Moon 3:33 PM CDT (7/17) 1:07 AM CDT (7/17)
Length of Visible Light 15h 48m
Length of Day
14h 44m
Waxing Gibbous, 67% of the Moon is Illuminated
Jul 17
Waxing Gibbous
Jul 22
Full
Jul 29
Last Quarter
Aug 6
New
Aug 14
First Quarter

Hourly Weather History & Observations

Time (CDT) Temp. Heat Index Dew Point Humidity Pressure Visibility Wind Dir Wind Speed Gust Speed Precip Events Conditions
12:53 AM 78.1 °F - 69.1 °F 74% 30.27 in 10.0 mi South 5.8 mph - N/A   Clear
1:53 AM 77.0 °F - 68.0 °F 74% 30.27 in 10.0 mi South 5.8 mph - N/A   Clear
2:53 AM 75.9 °F - 68.0 °F 76% 30.27 in 10.0 mi South 5.8 mph - N/A   Clear
3:53 AM 73.9 °F - 68.0 °F 82% 30.27 in 10.0 mi South 5.8 mph - N/A   Clear
4:53 AM 73.9 °F - 68.0 °F 82% 30.27 in 10.0 mi South 5.8 mph - N/A   Clear
5:53 AM 73.0 °F - 68.0 °F 84% 30.27 in 10.0 mi South 4.6 mph - N/A   Clear
6:53 AM 73.0 °F - 68.0 °F 84% 30.29 in 10.0 mi SSW 4.6 mph - N/A   Clear
7:53 AM 78.1 °F - 70.0 °F 76% 30.29 in 10.0 mi SSW 3.5 mph - N/A   Clear
8:53 AM 82.0 °F 85.5 °F 69.1 °F 65% 30.30 in 10.0 mi SW 5.8 mph - N/A   Clear
9:53 AM 84.0 °F 87.8 °F 69.1 °F 61% 30.30 in 10.0 mi WSW 4.6 mph - N/A   Partly Cloudy
10:53 AM 88.0 °F 92.9 °F 70.0 °F 55% 30.30 in 10.0 mi Variable 3.5 mph - N/A   Clear
11:53 AM 90.0 °F 93.6 °F 68.0 °F 48% 30.30 in 10.0 mi Variable 4.6 mph - N/A   Clear
12:53 PM 91.0 °F 95.6 °F 69.1 °F 48% 30.28 in 10.0 mi Variable 3.5 mph - N/A   Scattered Clouds
1:53 PM 89.1 °F 91.3 °F 66.0 °F 46% 30.27 in 10.0 mi South 8.1 mph - N/A   Scattered Clouds
2:53 PM 91.9 °F 94.5 °F 66.0 °F 42% 30.25 in 10.0 mi South 6.9 mph - N/A   Clear
3:53 PM 91.9 °F 94.1 °F 64.9 °F 41% 30.23 in 10.0 mi Variable 5.8 mph - N/A   Partly Cloudy
4:27 PM 89.6 °F 91.1 °F 64.4 °F 43% 30.25 in 9.0 mi South 6.9 mph - N/A Thunderstorm Clear
4:42 PM 91.4 °F 94.0 °F 66.2 °F 43% 30.25 in 10.0 mi South 9.2 mph - N/A   Partly Cloudy
4:53 PM 90.0 °F 92.4 °F 66.0 °F 45% 30.21 in 10.0 mi South 6.9 mph - N/A   Mostly Cloudy
5:30 PM 84.2 °F 87.3 °F 68.0 °F 58% 30.24 in 10.0 mi South 10.4 mph - N/A Thunderstorm Thunderstorm
5:53 PM 87.1 °F 90.6 °F 68.0 °F 53% 30.22 in 10.0 mi South 6.9 mph - N/A Thunderstorm Clear
6:04 PM 87.8 °F 91.4 °F 68.0 °F 52% 30.23 in 10.0 mi South 5.8 mph - N/A   Clear
6:53 PM 89.1 °F 92.9 °F 68.0 °F 50% 30.19 in 10.0 mi South 9.2 mph - N/A   Clear
7:53 PM 87.1 °F 91.3 °F 69.1 °F 55% 30.19 in 10.0 mi South 6.9 mph - N/A   Clear
8:53 PM 82.9 °F 87.0 °F 70.0 °F 65% 30.19 in 10.0 mi South 4.6 mph - N/A   Clear
9:53 PM 81.0 °F 84.9 °F 71.1 °F 72% 30.18 in 10.0 mi South 4.6 mph - N/A   Clear
10:53 PM 79.0 °F - 71.1 °F 77% 30.19 in 10.0 mi South 4.6 mph - N/A   Clear
11:53 PM 78.1 °F - 70.0 °F 76% 30.19 in 10.0 mi South 3.5 mph - N/A   Clear